This is the latest recevied weather packets stored in our database for station/object KO4MMQ-10. If no packets are shown the sender has not sent any weather packets the latest 10 day(s).
| Time | Temp. | Humidity | Pressure | Rain* | Wind** | Luminosity | Snow |
|---|---|---|---|---|---|---|---|
| 1777919308 | 26.67° C | 41% | 1012.3 hPa | 0 mm | - | - | - |
| 1777918707 | 26.67° C | 42% | 1012.4 hPa | 0 mm | - | - | - |
| 1777917508 | 26.11° C | 45% | 1012.6 hPa | 0 mm | - | - | - |
| 1777916308 | 26.11° C | 43% | 1012.9 hPa | 0 mm | - | - | - |
| 1777915107 | 25.56° C | 45% | 1013.1 hPa | 0 mm | - | - | - |
| 1777914508 | 25.56° C | 45% | 1013.2 hPa | 0 mm | - | - | - |
| 1777913908 | 25° C | 47% | 1013.3 hPa | 0 mm | - | - | - |
| 1777913308 | 25° C | 47% | 1013.3 hPa | 0 mm | - | - | - |
| 1777912707 | 25° C | 47% | 1013.4 hPa | 0 mm | - | - | - |
| 1777911508 | 24.44° C | 48% | 1013.6 hPa | 0 mm | - | - | - |
| 1777910907 | 23.89° C | 50% | 1013.6 hPa | 0 mm | - | - | - |
| 1777910308 | 23.89° C | 51% | 1013.8 hPa | 0 mm | - | - | - |
| 1777909707 | 23.33° C | 55% | 1013.9 hPa | 0 mm | - | - | - |
| 1777908508 | 22.22° C | 56% | 1014 hPa | 0 mm | - | - | - |
| 1777907908 | 21.67° C | 59% | 1014 hPa | 0 mm | - | - | - |
| 1777907308 | 21.11° C | 62% | 1014 hPa | 0 mm | - | - | - |
| 1777906707 | 20.56° C | 62% | 1014.2 hPa | 0 mm | - | - | - |
| 1777906107 | 20.56° C | 63% | 1014.2 hPa | 0 mm | - | - | - |
| 1777905508 | 20° C | 67% | 1014.3 hPa | 0 mm | - | - | - |
| 1777904907 | 19.44° C | 67% | 1014.3 hPa | 0 mm | - | - | - |
| 1777904307 | 19.44° C | 67% | 1014.3 hPa | 0 mm | - | - | - |
| 1777903708 | 18.89° C | 69% | 1014.2 hPa | 0 mm | - | - | - |
| 1777903108 | 18.33° C | 70% | 1014.3 hPa | 0 mm | - | - | - |
| 1777902507 | 17.78° C | 70% | 1014.2 hPa | 0 mm | - | - | - |
| 1777901907 | 17.78° C | 71% | 1014.2 hPa | 0 mm | - | - | - |
* Rain latest hour (hover to see other rain measurements)
** Current wind speed in m/s (hover to see current wind gust speed)